Location: Cactus School
(34.5700°N, 118.0931°W)
Time: 17:03:28
(UTC-07:00)

S-56A Canister/Altair - Visible Passes

Search period start: 16 April 2024 00:00
Search period end: 26 April 2024 00:00
Orbit: 639 x 2488 km, 38.9° (Epoch: 16 April)

Date Brightness Start Highest point End Pass type
(mag) Time Alt. Az. Time Alt. Az. Time Alt. Az.
16 Apr 10.4 00:36:42 10° WNW 00:41:28 32° W 00:41:28 32° W visible
16 Apr 8.9 19:55:12 10° W 20:01:56 69° N 20:12:20 10° ENE visible
16 Apr 9.2 21:59:00 10° WNW 22:07:39 77° NNE 22:12:04 45° E visible
17 Apr 9.9 00:03:06 10° WNW 00:09:24 44° W 00:09:24 44° W visible
17 Apr 9.1 21:25:43 10° WNW 21:33:43 74° NNE 21:40:01 31° E visible
17 Apr 9.5 23:29:36 10° WNW 23:37:21 60° WSW 23:37:21 60° WSW visible
18 Apr 9.0 20:52:27 10° WNW 20:59:52 70° N 21:07:59 21° E visible
18 Apr 9.2 22:56:11 10° WNW 23:05:19 74° SSW 23:05:19 74° SSW visible
19 Apr 11.0 01:01:13 10° W 01:02:39 15° W 01:02:39 15° W visible
19 Apr 8.9 20:19:13 10° WNW 20:26:05 67° N 20:35:58 12° E visible
19 Apr 9.1 22:22:49 10° WNW 22:31:31 79° SSW 22:33:19 66° SE visible
20 Apr 10.6 00:27:26 10° W 00:30:39 22° W 00:30:39 22° W visible
20 Apr 8.8 19:46:01 10° WNW 19:52:22 64° N 20:02:08 10° E visible
20 Apr 8.9 21:49:30 10° WNW 21:57:36 85° SSW 22:01:20 49° ESE visible
20 Apr 10.2 23:53:46 10° W 23:58:40 30° WSW 23:58:40 30° WSW visible
21 Apr 8.8 21:16:15 10° WNW 21:23:47 90° NNE 21:29:23 33° ESE visible
21 Apr 9.8 23:20:13 10° W 23:26:44 40° WSW 23:26:44 40° WSW visible
22 Apr 8.7 20:43:02 10° WNW 20:50:02 84° NNE 20:57:28 22° ESE visible
22 Apr 9.5 22:46:45 10° WNW 22:54:49 48° SW 22:54:49 48° SW visible
23 Apr 8.6 20:09:51 10° WNW 20:16:21 79° NNE 20:25:36 12° ESE visible
23 Apr 9.3 22:13:22 10° WNW 22:21:14 52° SSW 22:22:56 48° S visible
24 Apr 11.0 00:19:35 10° W 00:20:17 12° WSW 00:20:17 12° WSW visible
24 Apr 9.1 21:40:02 10° WNW 21:47:26 57° SSW 21:51:06 40° SSE visible
24 Apr 10.7 23:45:35 10° W 23:48:27 17° WSW 23:48:27 17° WSW visible
25 Apr 8.9 21:06:46 10° WNW 21:13:42 62° SSW 21:19:18 28° SE visible
25 Apr 10.4 23:11:45 10° W 23:16:39 22° SW 23:16:39 22° SW visible
